Year,Month,Day,Hour,Minute,Value (Times are PST for temperature in C)
2018,10,18,00,00,5.60
2018,10,18,00,01,5.60
2018,10,18,00,02,5.60
2018,10,18,00,03,5.60
2018,10,18,00,04,5.60
2018,10,18,00,05,5.70
2018,10,18,00,06,5.70
2018,10,18,00,07,5.70
2018,10,18,00,08,5.70
2018,10,18,00,09,5.80
2018,10,18,00,10,5.80
2018,10,18,00,11,5.70
2018,10,18,00,12,5.70
2018,10,18,00,13,5.70
2018,10,18,00,14,5.60
2018,10,18,00,15,5.60
2018,10,18,00,16,5.50
2018,10,18,00,17,5.50
2018,10,18,00,18,5.50
2018,10,18,00,19,5.50
2018,10,18,00,20,5.50
2018,10,18,00,21,5.50
2018,10,18,00,22,5.40
2018,10,18,00,23,5.40
2018,10,18,00,24,5.40
2018,10,18,00,25,5.40
2018,10,18,00,26,5.40
2018,10,18,00,27,5.40
2018,10,18,00,28,5.40
2018,10,18,00,29,5.40
2018,10,18,00,30,5.40
2018,10,18,00,31,5.40
2018,10,18,00,32,5.50
2018,10,18,00,33,5.50
2018,10,18,00,34,5.50
2018,10,18,00,35,5.60
2018,10,18,00,36,5.60
2018,10,18,00,37,5.50
2018,10,18,00,38,5.50
2018,10,18,00,39,5.50
2018,10,18,00,40,5.40
2018,10,18,00,41,5.40
2018,10,18,00,42,5.30
2018,10,18,00,43,5.30
2018,10,18,00,44,5.30
2018,10,18,00,45,5.20
2018,10,18,00,46,5.20
2018,10,18,00,47,5.20
2018,10,18,00,48,5.20
2018,10,18,00,49,5.20
2018,10,18,00,50,5.20
2018,10,18,00,51,5.20
2018,10,18,00,52,5.20
2018,10,18,00,53,5.10
2018,10,18,00,54,5.10
2018,10,18,00,55,5.10
2018,10,18,00,56,5.10
2018,10,18,00,57,5.10
2018,10,18,00,58,5.00
2018,10,18,00,59,5.00
2018,10,18,01,00,5.00
2018,10,18,01,01,5.00
2018,10,18,01,02,5.00
2018,10,18,01,03,5.00
2018,10,18,01,04,4.90
2018,10,18,01,05,4.90
2018,10,18,01,06,4.90
2018,10,18,01,07,4.80
2018,10,18,01,08,4.80
2018,10,18,01,09,4.80
2018,10,18,01,10,4.80
2018,10,18,01,11,4.80
2018,10,18,01,12,4.80
2018,10,18,01,13,4.80
2018,10,18,01,14,4.80
2018,10,18,01,15,4.80
2018,10,18,01,16,4.80
2018,10,18,01,17,4.80
2018,10,18,01,18,4.90
2018,10,18,01,19,4.90
2018,10,18,01,20,4.90
2018,10,18,01,21,4.90
2018,10,18,01,22,4.90
2018,10,18,01,23,4.90
2018,10,18,01,24,4.90
2018,10,18,01,25,4.90
2018,10,18,01,26,4.90
2018,10,18,01,27,4.80
2018,10,18,01,28,4.80
2018,10,18,01,29,4.80
2018,10,18,01,30,4.70
2018,10,18,01,31,4.70
2018,10,18,01,32,4.70
2018,10,18,01,33,4.70
2018,10,18,01,34,4.60
2018,10,18,01,35,4.60
2018,10,18,01,36,4.60
2018,10,18,01,37,4.60
2018,10,18,01,38,4.60
2018,10,18,01,39,4.60
2018,10,18,01,40,4.70
2018,10,18,01,41,4.70
2018,10,18,01,42,4.70
2018,10,18,01,43,4.70
2018,10,18,01,44,4.70
2018,10,18,01,45,4.70
2018,10,18,01,46,4.70
2018,10,18,01,47,4.70
2018,10,18,01,48,4.70
2018,10,18,01,49,4.70
2018,10,18,01,50,4.60
2018,10,18,01,51,4.60
2018,10,18,01,52,4.60
2018,10,18,01,53,4.60
2018,10,18,01,54,4.60
2018,10,18,01,55,4.50
2018,10,18,01,56,4.40
2018,10,18,01,57,4.40
2018,10,18,01,58,4.40
2018,10,18,01,59,4.40
2018,10,18,02,00,4.40
2018,10,18,02,01,4.40
2018,10,18,02,02,4.40
2018,10,18,02,03,4.40
2018,10,18,02,04,4.40
2018,10,18,02,05,4.40
2018,10,18,02,06,4.50
2018,10,18,02,07,4.50
2018,10,18,02,08,4.50
2018,10,18,02,09,4.50
2018,10,18,02,10,4.50
2018,10,18,02,11,4.60
2018,10,18,02,12,4.60
2018,10,18,02,13,4.60
2018,10,18,02,14,4.60
2018,10,18,02,15,4.60
2018,10,18,02,16,4.60
2018,10,18,02,17,4.50
2018,10,18,02,18,4.50
2018,10,18,02,19,4.50
2018,10,18,02,20,4.40
2018,10,18,02,21,4.40
2018,10,18,02,22,4.40
2018,10,18,02,23,4.40
2018,10,18,02,24,4.40
2018,10,18,02,25,4.50
2018,10,18,02,26,4.50
2018,10,18,02,27,4.50
2018,10,18,02,28,4.50
2018,10,18,02,29,4.50
2018,10,18,02,30,4.50
2018,10,18,02,31,4.50
2018,10,18,02,32,4.50
2018,10,18,02,33,4.50
2018,10,18,02,34,4.50
2018,10,18,02,35,4.50
2018,10,18,02,36,4.40
2018,10,18,02,37,4.40
2018,10,18,02,38,4.40
2018,10,18,02,39,4.40
2018,10,18,02,40,4.30
2018,10,18,02,41,4.30
2018,10,18,02,42,4.30
2018,10,18,02,43,4.40
2018,10,18,02,44,4.40
2018,10,18,02,45,4.40
2018,10,18,02,46,4.40
2018,10,18,02,47,4.30
2018,10,18,02,48,4.30
2018,10,18,02,49,4.30
2018,10,18,02,50,4.30
2018,10,18,02,51,4.30
2018,10,18,02,52,4.30
2018,10,18,02,53,4.30
2018,10,18,02,54,4.30
2018,10,18,02,55,4.30
2018,10,18,02,56,4.30
2018,10,18,02,57,4.30
2018,10,18,02,58,4.30
2018,10,18,02,59,4.40
2018,10,18,03,00,4.40
2018,10,18,03,01,4.40
2018,10,18,03,02,4.40
2018,10,18,03,03,4.30
2018,10,18,03,04,4.30
2018,10,18,03,05,4.30
2018,10,18,03,06,4.30
2018,10,18,03,07,4.30
2018,10,18,03,08,4.30
2018,10,18,03,09,4.30
2018,10,18,03,10,4.30
2018,10,18,03,11,4.30
2018,10,18,03,12,4.30
2018,10,18,03,13,4.20
2018,10,18,03,14,4.20
2018,10,18,03,15,4.20
2018,10,18,03,16,4.30
2018,10,18,03,17,4.30
2018,10,18,03,18,4.30
2018,10,18,03,19,4.30
2018,10,18,03,20,4.30
2018,10,18,03,21,4.30
2018,10,18,03,22,4.40
2018,10,18,03,23,4.30
2018,10,18,03,24,4.30
2018,10,18,03,25,4.30
2018,10,18,03,26,4.30
2018,10,18,03,27,4.30
2018,10,18,03,28,4.30
2018,10,18,03,29,4.30
2018,10,18,03,30,4.20
2018,10,18,03,31,4.20
2018,10,18,03,32,4.10
2018,10,18,03,33,4.10
2018,10,18,03,34,4.10
2018,10,18,03,35,4.00
2018,10,18,03,36,4.00
2018,10,18,03,37,4.00
2018,10,18,03,38,4.00
2018,10,18,03,39,4.00
2018,10,18,03,40,4.00
2018,10,18,03,41,4.10
2018,10,18,03,42,4.10
2018,10,18,03,43,4.10
2018,10,18,03,44,4.10
2018,10,18,03,45,4.10
2018,10,18,03,46,4.00
2018,10,18,03,47,4.00
2018,10,18,03,48,4.00
2018,10,18,03,49,3.90
2018,10,18,03,50,3.90
2018,10,18,03,51,3.90
2018,10,18,03,52,3.90
2018,10,18,03,53,3.90
2018,10,18,03,54,3.90
2018,10,18,03,55,3.90
2018,10,18,03,56,3.90
2018,10,18,03,57,4.00
2018,10,18,03,58,4.00
2018,10,18,03,59,4.10
2018,10,18,04,00,4.10
2018,10,18,04,01,4.20
2018,10,18,04,02,4.20
2018,10,18,04,03,4.20
2018,10,18,04,04,4.20
2018,10,18,04,05,4.20
2018,10,18,04,06,4.20
2018,10,18,04,07,4.20
2018,10,18,04,08,4.20
2018,10,18,04,09,4.20
2018,10,18,04,10,4.20
2018,10,18,04,11,4.20
2018,10,18,04,12,4.20
2018,10,18,04,13,4.20
2018,10,18,04,14,4.20
2018,10,18,04,15,4.20
2018,10,18,04,16,4.20
2018,10,18,04,17,4.20
2018,10,18,04,18,4.20
2018,10,18,04,19,4.20
2018,10,18,04,20,4.20
2018,10,18,04,21,4.20
2018,10,18,04,22,4.20
2018,10,18,04,23,4.30
2018,10,18,04,24,4.30
2018,10,18,04,25,4.30
2018,10,18,04,26,4.30
2018,10,18,04,27,4.30
2018,10,18,04,28,4.30
2018,10,18,04,29,4.20
2018,10,18,04,30,4.20
2018,10,18,04,31,4.20
2018,10,18,04,32,4.20
2018,10,18,04,33,4.20
2018,10,18,04,34,4.20
2018,10,18,04,35,4.20
2018,10,18,04,36,4.20
2018,10,18,04,37,4.20
2018,10,18,04,38,4.20
2018,10,18,04,39,4.10
2018,10,18,04,40,4.10
2018,10,18,04,41,4.10
2018,10,18,04,42,4.00
2018,10,18,04,43,4.00
2018,10,18,04,44,4.00
2018,10,18,04,45,3.90
2018,10,18,04,46,3.90
2018,10,18,04,47,3.90
2018,10,18,04,48,3.90
2018,10,18,04,49,4.00
2018,10,18,04,50,4.10
2018,10,18,04,51,4.10
2018,10,18,04,52,4.20
2018,10,18,04,53,4.20
2018,10,18,04,54,4.20
2018,10,18,04,55,4.10
2018,10,18,04,56,4.10
2018,10,18,04,57,4.10
2018,10,18,04,58,4.10
2018,10,18,04,59,4.10
2018,10,18,05,00,4.10
2018,10,18,05,01,4.00
2018,10,18,05,02,4.00
2018,10,18,05,03,3.90
2018,10,18,05,04,3.90
2018,10,18,05,05,3.90
2018,10,18,05,06,3.80
2018,10,18,05,07,3.80
2018,10,18,05,08,3.80
2018,10,18,05,09,3.80
2018,10,18,05,10,3.80
2018,10,18,05,11,3.80
2018,10,18,05,12,3.80
2018,10,18,05,13,3.90
2018,10,18,05,14,4.00
2018,10,18,05,15,4.00
2018,10,18,05,16,4.10
2018,10,18,05,17,4.10
2018,10,18,05,18,4.20
2018,10,18,05,19,4.20
2018,10,18,05,20,4.20
2018,10,18,05,21,4.20
2018,10,18,05,22,4.20
2018,10,18,05,23,4.20
2018,10,18,05,24,4.20
2018,10,18,05,25,4.10
2018,10,18,05,26,4.10
2018,10,18,05,27,4.10
2018,10,18,05,28,4.00
2018,10,18,05,29,4.00
2018,10,18,05,30,3.90
2018,10,18,05,31,3.90
2018,10,18,05,32,3.90
2018,10,18,05,33,3.90
2018,10,18,05,34,3.90
2018,10,18,05,35,3.90
2018,10,18,05,36,4.00
2018,10,18,05,37,4.00
2018,10,18,05,38,4.00
2018,10,18,05,39,4.00
2018,10,18,05,40,4.00
2018,10,18,05,41,4.00
2018,10,18,05,42,4.00
2018,10,18,05,43,4.10
2018,10,18,05,44,4.10
2018,10,18,05,45,4.10
2018,10,18,05,46,4.10
2018,10,18,05,47,4.10
2018,10,18,05,48,4.20
2018,10,18,05,49,4.20
2018,10,18,05,50,4.20
2018,10,18,05,51,4.20
2018,10,18,05,52,4.20
2018,10,18,05,53,4.20
2018,10,18,05,54,4.20
2018,10,18,05,55,4.20
2018,10,18,05,56,4.20
2018,10,18,05,57,4.20
2018,10,18,05,58,4.30
2018,10,18,05,59,4.30
2018,10,18,06,00,4.30
2018,10,18,06,01,4.30
2018,10,18,06,02,4.40
2018,10,18,06,03,4.40
2018,10,18,06,04,4.40
2018,10,18,06,05,4.50
2018,10,18,06,06,4.50
2018,10,18,06,07,4.50
2018,10,18,06,08,4.50
2018,10,18,06,09,4.60
2018,10,18,06,10,4.60
2018,10,18,06,11,4.60
2018,10,18,06,12,4.60
2018,10,18,06,13,4.60
2018,10,18,06,14,4.60
2018,10,18,06,15,4.60
2018,10,18,06,16,4.60
2018,10,18,06,17,4.60
2018,10,18,06,18,4.60
2018,10,18,06,19,4.60
2018,10,18,06,20,4.60
2018,10,18,06,21,4.60
2018,10,18,06,22,4.60
2018,10,18,06,23,4.60
2018,10,18,06,24,4.60
2018,10,18,06,25,4.60
2018,10,18,06,26,4.70
2018,10,18,06,27,4.70
2018,10,18,06,28,4.70
2018,10,18,06,29,4.70
2018,10,18,06,30,4.60
2018,10,18,06,31,4.60
2018,10,18,06,32,4.60
2018,10,18,06,33,4.60
2018,10,18,06,34,4.60
2018,10,18,06,35,4.50
2018,10,18,06,36,4.50
2018,10,18,06,37,4.50
2018,10,18,06,38,4.50
2018,10,18,06,39,4.50
2018,10,18,06,40,4.50
2018,10,18,06,41,4.50
2018,10,18,06,42,4.50
2018,10,18,06,43,4.40
2018,10,18,06,44,4.40
2018,10,18,06,45,4.40
2018,10,18,06,46,4.40
2018,10,18,06,47,4.40
2018,10,18,06,48,4.40
2018,10,18,06,49,4.40
2018,10,18,06,50,4.40
2018,10,18,06,51,4.40
2018,10,18,06,52,4.40
2018,10,18,06,53,4.40
2018,10,18,06,54,4.40
2018,10,18,06,55,4.50
2018,10,18,06,56,4.50
2018,10,18,06,57,4.50
2018,10,18,06,58,4.50
2018,10,18,06,59,4.50
2018,10,18,07,00,4.50
2018,10,18,07,01,4.50
2018,10,18,07,02,4.50
2018,10,18,07,03,4.50
2018,10,18,07,04,4.50
2018,10,18,07,05,4.50
2018,10,18,07,06,4.50
2018,10,18,07,07,4.50
2018,10,18,07,08,4.50
2018,10,18,07,09,4.50
2018,10,18,07,10,4.60
2018,10,18,07,11,4.60
2018,10,18,07,12,4.60
2018,10,18,07,13,4.60
2018,10,18,07,14,4.60
2018,10,18,07,15,4.60
2018,10,18,07,16,4.60
2018,10,18,07,17,4.60
2018,10,18,07,18,4.60
2018,10,18,07,19,4.60
2018,10,18,07,20,4.60
2018,10,18,07,21,4.60
2018,10,18,07,22,4.60
2018,10,18,07,23,4.60
2018,10,18,07,24,4.60
2018,10,18,07,25,4.50
2018,10,18,07,26,4.50
2018,10,18,07,27,4.40
2018,10,18,07,28,4.40
2018,10,18,07,29,4.40
2018,10,18,07,30,4.40
2018,10,18,07,31,4.40
2018,10,18,07,32,4.50
2018,10,18,07,33,4.50
2018,10,18,07,34,4.50
2018,10,18,07,35,4.50
2018,10,18,07,36,4.50
2018,10,18,07,37,4.40
2018,10,18,07,38,4.40
2018,10,18,07,39,4.40
2018,10,18,07,40,4.30
2018,10,18,07,41,4.30
2018,10,18,07,42,4.30
2018,10,18,07,43,4.30
2018,10,18,07,44,4.30
2018,10,18,07,45,4.30
2018,10,18,07,46,4.20
2018,10,18,07,47,4.20
2018,10,18,07,48,4.20
2018,10,18,07,49,4.20
2018,10,18,07,50,4.30
2018,10,18,07,51,4.30
2018,10,18,07,52,4.30
2018,10,18,07,53,4.30
2018,10,18,07,54,4.30
2018,10,18,07,55,4.30
2018,10,18,07,56,4.30
2018,10,18,07,57,4.30
2018,10,18,07,58,4.30
2018,10,18,07,59,4.30
2018,10,18,08,00,4.30
2018,10,18,08,01,4.30
2018,10,18,08,02,4.30
2018,10,18,08,03,4.30
2018,10,18,08,04,4.30
2018,10,18,08,05,4.30
2018,10,18,08,06,4.30
2018,10,18,08,07,4.40
2018,10,18,08,08,4.40
2018,10,18,08,09,4.40
2018,10,18,08,10,4.50
2018,10,18,08,11,4.50
2018,10,18,08,12,4.60
2018,10,18,08,13,4.60
2018,10,18,08,14,4.60
2018,10,18,08,15,4.60
2018,10,18,08,16,4.60
2018,10,18,08,17,4.60
2018,10,18,08,18,4.60
2018,10,18,08,19,4.60
2018,10,18,08,20,4.60
2018,10,18,08,21,4.60
2018,10,18,08,22,4.60
2018,10,18,08,23,4.70
2018,10,18,08,24,4.80
2018,10,18,08,25,4.80
2018,10,18,08,26,4.90
2018,10,18,08,27,5.00
2018,10,18,08,28,5.00
2018,10,18,08,29,5.10
2018,10,18,08,30,5.20
2018,10,18,08,31,5.20
2018,10,18,08,32,5.30
2018,10,18,08,33,5.40
2018,10,18,08,34,5.40
2018,10,18,08,35,5.50
2018,10,18,08,36,5.60
2018,10,18,08,37,5.60
2018,10,18,08,38,5.70
2018,10,18,08,39,5.70
2018,10,18,08,40,5.80
2018,10,18,08,41,5.80
2018,10,18,08,42,5.90
2018,10,18,08,43,5.90
2018,10,18,08,44,6.00
2018,10,18,08,45,6.10
2018,10,18,08,46,6.20
2018,10,18,08,47,6.30
2018,10,18,08,48,6.30
2018,10,18,08,49,6.40
2018,10,18,08,50,6.50
2018,10,18,08,51,6.60
2018,10,18,08,52,6.60
2018,10,18,08,53,6.70
2018,10,18,08,54,6.70
2018,10,18,08,55,6.80
2018,10,18,08,56,6.80
2018,10,18,08,57,6.90
2018,10,18,08,58,6.90
2018,10,18,08,59,7.00
2018,10,18,09,00,7.00
2018,10,18,09,01,7.10
2018,10,18,09,02,7.10
2018,10,18,09,03,7.10
2018,10,18,09,04,7.20
2018,10,18,09,05,7.20
2018,10,18,09,06,7.30
2018,10,18,09,07,7.30
2018,10,18,09,08,7.30
2018,10,18,09,09,7.40
2018,10,18,09,10,7.40
2018,10,18,09,11,7.40
2018,10,18,09,12,7.50
2018,10,18,09,13,7.50
2018,10,18,09,14,7.60
2018,10,18,09,15,7.60
2018,10,18,09,16,7.60
2018,10,18,09,17,7.70
2018,10,18,09,18,7.70
2018,10,18,09,19,7.70
2018,10,18,09,20,7.80
2018,10,18,09,21,7.80
2018,10,18,09,22,7.80
2018,10,18,09,23,7.90
2018,10,18,09,24,7.90
2018,10,18,09,25,8.00
2018,10,18,09,26,8.00
2018,10,18,09,27,8.10
2018,10,18,09,28,8.10
2018,10,18,09,29,8.20
2018,10,18,09,30,8.20
2018,10,18,09,31,8.20
2018,10,18,09,32,8.30
2018,10,18,09,33,8.30
2018,10,18,09,34,8.40
2018,10,18,09,35,8.40
2018,10,18,09,36,8.50
2018,10,18,09,37,8.60
2018,10,18,09,38,8.60
2018,10,18,09,39,8.70
2018,10,18,09,40,8.70
2018,10,18,09,41,8.80
2018,10,18,09,42,8.90
2018,10,18,09,43,8.90
2018,10,18,09,44,9.00
2018,10,18,09,45,9.10
2018,10,18,09,46,9.10
2018,10,18,09,47,9.20
2018,10,18,09,48,9.20
2018,10,18,09,49,9.30
2018,10,18,09,50,9.40
2018,10,18,09,51,9.50
2018,10,18,09,52,9.50
2018,10,18,09,53,9.60
2018,10,18,09,54,9.60
2018,10,18,09,55,9.60
2018,10,18,09,56,9.70
2018,10,18,09,57,9.70
2018,10,18,09,58,9.70
2018,10,18,09,59,9.80
2018,10,18,10,00,9.80
2018,10,18,10,01,9.80
2018,10,18,10,02,9.90
2018,10,18,10,03,9.90
2018,10,18,10,04,9.90
2018,10,18,10,05,9.90
2018,10,18,10,06,10.00
2018,10,18,10,07,10.00
2018,10,18,10,08,10.00
2018,10,18,10,09,10.10
2018,10,18,10,10,10.10
2018,10,18,10,11,10.10
2018,10,18,10,12,10.20
2018,10,18,10,13,10.20
2018,10,18,10,14,10.20
2018,10,18,10,15,10.30
2018,10,18,10,16,10.40
2018,10,18,10,17,10.50
2018,10,18,10,18,10.60
2018,10,18,10,19,10.60
2018,10,18,10,20,10.70
2018,10,18,10,21,10.80
2018,10,18,10,22,10.80
2018,10,18,10,23,10.80
2018,10,18,10,24,10.80
2018,10,18,10,25,10.80
2018,10,18,10,26,10.80
2018,10,18,10,27,10.80
2018,10,18,10,28,10.90
2018,10,18,10,29,10.90
2018,10,18,10,30,10.90
2018,10,18,10,31,10.90
2018,10,18,10,32,10.90
2018,10,18,10,33,11.00
2018,10,18,10,34,11.10
2018,10,18,10,35,11.10
2018,10,18,10,36,11.20
2018,10,18,10,37,11.20
2018,10,18,10,38,11.30
2018,10,18,10,39,11.40
2018,10,18,10,40,11.40
2018,10,18,10,41,11.50
2018,10,18,10,42,11.60
2018,10,18,10,43,11.70
2018,10,18,10,44,11.70
2018,10,18,10,45,11.80
2018,10,18,10,46,11.90
2018,10,18,10,47,12.00
2018,10,18,10,48,12.10
2018,10,18,10,49,12.20
2018,10,18,10,50,12.30
2018,10,18,10,51,12.40
2018,10,18,10,52,12.40
2018,10,18,10,53,12.50
2018,10,18,10,54,12.60
2018,10,18,10,55,12.70
2018,10,18,10,56,12.70
2018,10,18,10,57,12.80
2018,10,18,10,58,12.80
2018,10,18,10,59,12.90
2018,10,18,11,00,13.00
2018,10,18,11,01,13.10
2018,10,18,11,02,13.10
2018,10,18,11,03,13.20
2018,10,18,11,04,13.30
2018,10,18,11,05,13.30
2018,10,18,11,06,13.30
2018,10,18,11,07,13.30
2018,10,18,11,08,13.40
2018,10,18,11,09,13.40
2018,10,18,11,10,13.40
2018,10,18,11,11,13.40
2018,10,18,11,12,13.40
2018,10,18,11,13,13.50
2018,10,18,11,14,13.50
2018,10,18,11,15,13.60
2018,10,18,11,16,13.60
2018,10,18,11,17,13.70
2018,10,18,11,18,13.70
2018,10,18,11,19,13.70
2018,10,18,11,20,13.70
2018,10,18,11,21,13.80
2018,10,18,11,22,13.80
2018,10,18,11,23,13.80
2018,10,18,11,24,13.80
2018,10,18,11,25,13.90
2018,10,18,11,26,13.90
2018,10,18,11,27,13.90
2018,10,18,11,28,13.90
2018,10,18,11,29,13.90
2018,10,18,11,30,13.90
2018,10,18,11,31,13.80
2018,10,18,11,32,13.70
2018,10,18,11,33,13.70
2018,10,18,11,34,13.70
2018,10,18,11,35,13.70
2018,10,18,11,36,13.70
2018,10,18,11,37,13.70
2018,10,18,11,38,13.70
2018,10,18,11,39,13.70
2018,10,18,11,40,13.70
2018,10,18,11,41,13.70
2018,10,18,11,42,13.60
2018,10,18,11,43,13.60
2018,10,18,11,44,13.60
2018,10,18,11,45,13.60
2018,10,18,11,46,13.60
2018,10,18,11,47,13.50
2018,10,18,11,48,13.50
2018,10,18,11,49,13.40
2018,10,18,11,50,13.40
2018,10,18,11,51,13.30
2018,10,18,11,52,13.30
2018,10,18,11,53,13.20
2018,10,18,11,54,13.20
2018,10,18,11,55,13.10
2018,10,18,11,56,13.00
2018,10,18,11,57,13.00
2018,10,18,11,58,12.90
2018,10,18,11,59,12.90
2018,10,18,12,00,12.90
2018,10,18,12,01,12.90
2018,10,18,12,02,12.90
2018,10,18,12,03,12.90
2018,10,18,12,04,12.90
2018,10,18,12,05,12.90
2018,10,18,12,06,13.00
2018,10,18,12,07,13.00
2018,10,18,12,08,13.10
2018,10,18,12,09,13.10
2018,10,18,12,10,13.10
2018,10,18,12,11,13.20
2018,10,18,12,12,13.20
2018,10,18,12,13,13.20
2018,10,18,12,14,13.20
2018,10,18,12,15,13.30
2018,10,18,12,16,13.30
2018,10,18,12,17,13.30
2018,10,18,12,18,13.40
2018,10,18,12,19,13.40
2018,10,18,12,20,13.30
2018,10,18,12,21,13.30
2018,10,18,12,22,13.20
2018,10,18,12,23,13.20
2018,10,18,12,24,13.20
2018,10,18,12,25,13.20
2018,10,18,12,26,13.10
2018,10,18,12,27,13.00
2018,10,18,12,28,13.00
2018,10,18,12,29,13.00
2018,10,18,12,30,13.00
2018,10,18,12,31,12.90
2018,10,18,12,32,13.00
2018,10,18,12,33,13.00
2018,10,18,12,34,13.00
2018,10,18,12,35,13.10
2018,10,18,12,36,13.10
2018,10,18,12,37,13.10
2018,10,18,12,38,13.20
2018,10,18,12,39,13.20
2018,10,18,12,40,13.30
2018,10,18,12,41,13.30
2018,10,18,12,42,13.30
2018,10,18,12,43,13.30
2018,10,18,12,44,13.30
2018,10,18,12,45,13.30
2018,10,18,12,46,13.30
2018,10,18,12,47,13.30
2018,10,18,12,48,13.40
2018,10,18,12,49,13.40
2018,10,18,12,50,13.40
2018,10,18,12,51,13.50
2018,10,18,12,52,13.50
2018,10,18,12,53,13.50
2018,10,18,12,54,13.60
2018,10,18,12,55,13.60
2018,10,18,12,56,13.60
2018,10,18,12,57,13.60
2018,10,18,12,58,13.50
2018,10,18,12,59,13.40
2018,10,18,13,00,13.40
2018,10,18,13,01,13.40
2018,10,18,13,02,13.40
2018,10,18,13,03,13.40
2018,10,18,13,04,13.40
2018,10,18,13,05,13.40
2018,10,18,13,06,13.50
2018,10,18,13,07,13.50
2018,10,18,13,08,13.50
2018,10,18,13,09,13.50
2018,10,18,13,10,13.60
2018,10,18,13,11,13.60
2018,10,18,13,12,13.70
2018,10,18,13,13,13.70
2018,10,18,13,14,13.80
2018,10,18,13,15,13.80
2018,10,18,13,16,13.80
2018,10,18,13,17,13.80
2018,10,18,13,18,13.80
2018,10,18,13,19,13.70
2018,10,18,13,20,13.70
2018,10,18,13,21,13.60
2018,10,18,13,22,13.60
2018,10,18,13,23,13.40
2018,10,18,13,24,13.40
2018,10,18,13,25,13.30
2018,10,18,13,26,13.30
2018,10,18,13,27,13.30
2018,10,18,13,28,13.40
2018,10,18,13,29,13.40
2018,10,18,13,30,13.40
2018,10,18,13,31,13.40
2018,10,18,13,32,13.40
2018,10,18,13,33,13.50
2018,10,18,13,34,13.50
2018,10,18,13,35,13.50
2018,10,18,13,36,13.60
2018,10,18,13,37,13.70
2018,10,18,13,38,13.70
2018,10,18,13,39,13.80
2018,10,18,13,40,13.80
2018,10,18,13,41,13.80
2018,10,18,13,42,13.90
2018,10,18,13,43,13.90
2018,10,18,13,44,14.00
2018,10,18,13,45,14.00
2018,10,18,13,46,14.10
2018,10,18,13,47,14.10
2018,10,18,13,48,14.10
2018,10,18,13,49,14.10
2018,10,18,13,50,14.10
2018,10,18,13,51,14.00
2018,10,18,13,52,14.00
2018,10,18,13,53,14.00
2018,10,18,13,54,14.00
2018,10,18,13,55,14.00
2018,10,18,13,56,14.00
2018,10,18,13,57,14.00
2018,10,18,13,58,14.00
2018,10,18,13,59,14.10
2018,10,18,14,00,14.10
2018,10,18,14,01,14.10
2018,10,18,14,02,14.00
2018,10,18,14,03,14.00
2018,10,18,14,04,13.90
2018,10,18,14,05,13.80
2018,10,18,14,06,13.80
2018,10,18,14,07,13.70
2018,10,18,14,08,13.60
2018,10,18,14,09,13.60
2018,10,18,14,10,13.60
2018,10,18,14,11,13.60
2018,10,18,14,12,13.60
2018,10,18,14,13,13.60
2018,10,18,14,14,13.60
2018,10,18,14,15,13.60
2018,10,18,14,16,13.60
2018,10,18,14,17,13.60
2018,10,18,14,18,13.60
2018,10,18,14,19,13.60
2018,10,18,14,20,13.60
2018,10,18,14,21,13.60
2018,10,18,14,22,13.60
2018,10,18,14,23,13.60
2018,10,18,14,24,13.50
2018,10,18,14,25,13.40
2018,10,18,14,26,13.40
2018,10,18,14,27,13.30
2018,10,18,14,28,13.30
2018,10,18,14,29,13.20
2018,10,18,14,30,13.20
2018,10,18,14,31,13.20
2018,10,18,14,32,13.10
2018,10,18,14,33,13.10
2018,10,18,14,34,13.10
2018,10,18,14,35,13.00
2018,10,18,14,36,13.00
2018,10,18,14,37,13.00
2018,10,18,14,38,13.00
2018,10,18,14,39,13.00
2018,10,18,14,40,13.10
2018,10,18,14,41,13.10
2018,10,18,14,42,13.10
2018,10,18,14,43,13.10
2018,10,18,14,44,13.10
2018,10,18,14,45,13.10
2018,10,18,14,46,13.20
2018,10,18,14,47,13.20
2018,10,18,14,48,13.20
2018,10,18,14,49,13.20
2018,10,18,14,50,13.20
2018,10,18,14,51,13.20
2018,10,18,14,52,13.20
2018,10,18,14,53,13.10
2018,10,18,14,54,13.10
2018,10,18,14,55,13.10
2018,10,18,14,56,13.10
2018,10,18,14,57,13.00
2018,10,18,14,58,13.00
2018,10,18,14,59,13.00
2018,10,18,15,00,13.00
2018,10,18,15,01,13.00
2018,10,18,15,02,13.00
2018,10,18,15,03,13.00
2018,10,18,15,04,13.00
2018,10,18,15,05,13.00
2018,10,18,15,06,12.90
2018,10,18,15,07,12.90
2018,10,18,15,08,12.90
2018,10,18,15,09,12.90
2018,10,18,15,10,12.90
2018,10,18,15,11,12.80
2018,10,18,15,12,12.80
2018,10,18,15,13,12.80
2018,10,18,15,14,12.80
2018,10,18,15,15,12.70
2018,10,18,15,16,12.70
2018,10,18,15,17,12.70
2018,10,18,15,18,12.70
2018,10,18,15,19,12.60
2018,10,18,15,20,12.60
2018,10,18,15,21,12.60
2018,10,18,15,22,12.60
2018,10,18,15,23,12.60
2018,10,18,15,24,12.60
2018,10,18,15,25,12.60
2018,10,18,15,26,12.60
2018,10,18,15,27,12.60
2018,10,18,15,28,12.60
2018,10,18,15,29,12.60
2018,10,18,15,30,12.60
2018,10,18,15,31,12.60
2018,10,18,15,32,12.60
2018,10,18,15,33,12.60
2018,10,18,15,34,12.70
2018,10,18,15,35,12.70
2018,10,18,15,36,12.70
2018,10,18,15,37,12.70
2018,10,18,15,38,12.70
2018,10,18,15,39,12.70
2018,10,18,15,40,12.70
2018,10,18,15,41,12.70
2018,10,18,15,42,12.70
2018,10,18,15,43,12.70
2018,10,18,15,44,12.70
2018,10,18,15,45,12.80
2018,10,18,15,46,12.80
2018,10,18,15,47,12.80
2018,10,18,15,48,12.80
2018,10,18,15,49,12.80
2018,10,18,15,50,12.80
2018,10,18,15,51,12.80
2018,10,18,15,52,12.80
2018,10,18,15,53,12.80
2018,10,18,15,54,12.80
2018,10,18,15,55,12.90
2018,10,18,15,56,12.90
2018,10,18,15,57,12.90
2018,10,18,15,58,12.90
2018,10,18,15,59,12.90
2018,10,18,16,00,12.90
2018,10,18,16,01,12.90
2018,10,18,16,02,12.90
2018,10,18,16,03,12.90
2018,10,18,16,04,12.90
2018,10,18,16,05,12.90
2018,10,18,16,06,13.00
2018,10,18,16,07,13.00
2018,10,18,16,08,13.00
2018,10,18,16,09,13.00
2018,10,18,16,10,13.00
2018,10,18,16,11,13.00
2018,10,18,16,12,13.00
2018,10,18,16,13,13.00
2018,10,18,16,14,13.00
2018,10,18,16,15,13.00
2018,10,18,16,16,13.00
2018,10,18,16,17,13.00
2018,10,18,16,18,13.00
2018,10,18,16,19,13.00
2018,10,18,16,20,13.00
2018,10,18,16,21,13.00
2018,10,18,16,22,13.00
2018,10,18,16,23,13.10
2018,10,18,16,24,13.10
2018,10,18,16,25,13.00
2018,10,18,16,26,13.00
2018,10,18,16,27,13.00
2018,10,18,16,28,12.90
2018,10,18,16,29,12.90
2018,10,18,16,30,12.90
2018,10,18,16,31,12.90
2018,10,18,16,32,12.90
2018,10,18,16,33,12.90
2018,10,18,16,34,13.00
2018,10,18,16,35,13.00
2018,10,18,16,36,13.10
2018,10,18,16,37,13.20
2018,10,18,16,38,13.20
2018,10,18,16,39,13.30
2018,10,18,16,40,13.40
2018,10,18,16,41,13.40
2018,10,18,16,42,13.40
2018,10,18,16,43,13.50
2018,10,18,16,44,13.60
2018,10,18,16,45,13.60
2018,10,18,16,46,13.60
2018,10,18,16,47,13.70
2018,10,18,16,48,13.80
2018,10,18,16,49,13.80
2018,10,18,16,50,13.90
2018,10,18,16,51,14.00
2018,10,18,16,52,14.10
2018,10,18,16,53,14.10
2018,10,18,16,54,14.10
2018,10,18,16,55,14.10
2018,10,18,16,56,14.10
2018,10,18,16,57,14.10
2018,10,18,16,58,14.00
2018,10,18,16,59,14.00
2018,10,18,17,00,13.90
2018,10,18,17,01,13.90
2018,10,18,17,02,13.90
2018,10,18,17,03,13.80
2018,10,18,17,04,13.80
2018,10,18,17,05,13.80
2018,10,18,17,06,13.70
2018,10,18,17,07,13.60
2018,10,18,17,08,13.60
2018,10,18,17,09,13.50
2018,10,18,17,10,13.50
2018,10,18,17,11,13.40
2018,10,18,17,12,13.40
2018,10,18,17,13,13.30
2018,10,18,17,14,13.30
2018,10,18,17,15,13.30
2018,10,18,17,16,13.30
2018,10,18,17,17,13.20
2018,10,18,17,18,13.20
2018,10,18,17,19,13.20
2018,10,18,17,20,13.20
2018,10,18,17,21,13.10
2018,10,18,17,22,13.10
2018,10,18,17,23,13.10
2018,10,18,17,24,13.10
2018,10,18,17,25,13.10
2018,10,18,17,26,13.10
2018,10,18,17,27,13.00
2018,10,18,17,28,13.00
2018,10,18,17,29,13.00
2018,10,18,17,30,12.90
2018,10,18,17,31,12.90
2018,10,18,17,32,12.90
2018,10,18,17,33,12.80
2018,10,18,17,34,12.80
2018,10,18,17,35,12.80
2018,10,18,17,36,12.80
2018,10,18,17,37,12.80
2018,10,18,17,38,12.80
2018,10,18,17,39,12.80
2018,10,18,17,40,12.80
2018,10,18,17,41,12.70
2018,10,18,17,42,12.70
2018,10,18,17,43,12.70
2018,10,18,17,44,12.70
2018,10,18,17,45,12.60